[[{"header":{"parameterUnit":"m.s-1","parameterCategory":1,"la1":30.2991,"la2":30.254,"lo1":-89.0895,"lo2":-89.0444,"dy":0.0017,"dx":0.0017,"nx":28,"ny":28,"refTime":"2025-12-06T09:00:00:Z","depth":0,"parameterNumber":2,"parameterNumberName":"U-component_of_WINDS"},"data":[0,0,0,0,0,0,0,0,0,0,0,0,0,0,0,0,0,0,0,0,0,0,0,0,0,0,0,0,0,0,0,0,0,0,0,0,0,0,0,0,0,0,0,0,0,0,0,0,0,0,0,0,0,0,0,0,0,0,-5.3287,-5.3289,0,-5.3407,-5.3408,-5.3409,-5.3284,-5.3279,-5.3274,-5.327,-5.3396,-5.3403,-5.3411,0,0,0,0,0,0,0,0,0,0,0,0,0,-5.2954,-5.2961,-5.3287,-5.3289,-5.329,-5.3406,-5.3408,-5.341,-5.3285,-5.3279,-5.3273,-5.3268,-5.3393,-5.3402,-5.3412,0,0,0,0,0,0,0,0,0,0,0,0,0,-5.3089,-5.2963,-5.3287,-5.3242,-5.3239,-5.3406,-5.3408,-5.341,-5.3286,-5.3279,-5.3272,-5.3265,-5.339,-5.3402,-5.3413,-5.3631,0,0,-5.3449,-5.3454,0,0,0,0,0,0,0,0,-5.3082,-5.3101,-5.3247,-5.3245,-5.3243,-5.3323,-5.3336,-5.3484,-5.3288,-5.3269,-5.327,-5.3261,-5.3378,-5.339,-5.3428,-5.3637,-5.3643,-5.345,-5.3457,-5.3462,-5.3466,0,0,0,0,0,0,0,-5.3072,-5.3096,-5.3334,-5.3249,-5.3247,-5.3217,-5.3228,-5.3364,-5.3363,-5.327,-5.3261,-5.3276,-5.3375,-5.3417,-5.343,-5.3645,-5.345,-5.346,-5.3468,-5.3472,-5.4037,-5.4045,0,0,0,0,0,0,-5.3068,-5.3089,-5.3331,-5.3338,-5.3142,-5.3229,-5.3241,-5.3305,-5.3361,-5.3362,-5.3283,-5.327,-5.3401,-5.3417,-5.3434,-5.3693,-5.3462,-5.3473,-5.348,-5.403,-5.4039,-5.4048,0,0,0,0,0,0,-5.3061,-5.309,-5.3326,-5.3211,-5.3239,-5.3242,-5.3315,-5.3311,-5.3353,-5.337,-5.337,-5.3326,-5.3396,-5.3418,-5.3583,-5.3695,-5.3479,-5.3489,-5.402,-5.4033,-5.4044,-5.4212,0,0,0,0,0,0,-5.3052,-5.3089,-5.3171,-5.3214,-5.3245,-5.3472,-5.3321,-5.3318,-5.3373,-5.3358,-5.3411,-5.3413,-5.3392,-5.3566,-5.3595,-5.3708,-5.3499,-5.401,-5.4026,-5.404,-5.4196,-5.4228,-5.4255,0,0,0,0,0,-5.304,-5.3215,-5.3176,-5.3206,-5.3348,-5.3479,-5.3497,-5.3468,-5.3383,-5.3466,-5.3477,-5.3411,-5.3679,-5.3584,-5.3615,-5.3733,-5.4003,-5.4021,-5.4039,-5.4183,-5.4222,-5.4254,0,0,0,0,0,0,-5.3187,-5.322,-5.3177,-5.337,-5.3423,-5.3457,-5.3561,-5.351,-5.3589,-5.3572,-5.3534,-5.3547,-5.3722,-5.3744,-5.3638,-5.3947,-5.3827,-5.3852,-5.3926,-5.3963,-5.3992,-5.3983,-5.3508,0,0,0,0,0,-5.3241,-5.3344,-5.3367,-5.3535,-5.3564,-5.3559,-5.3614,-5.3587,-5.3641,-5.3663,-5.3686,-5.3741,-5.3837,-5.3901,-5.3991,-5.4199,-5.4208,-5.4296,-5.4325,-5.4349,-5.4371,-5.4482,-5.4521,-5.4106,-5.4106,-5.4106,0,0,-5.3356,-5.3386,-5.3453,-5.3566,-5.3603,-5.371,-5.3578,-5.3698,-5.3777,-5.3681,-5.3837,-5.3857,-5.3916,-5.4103,-5.4187,-5.4127,-5.4488,-5.4372,-5.4391,-5.44,-5.4505,-5.4544,-5.4579,-5.4119,-5.4116,-5.4114,0,0,-5.3618,-5.3652,-5.3795,-5.3835,-5.3892,-5.3888,-5.3922,-5.3965,-5.3974,-5.413,-5.406,-5.4154,-5.4321,-5.4366,-5.441,-5.4689,-5.4632,-5.472,-5.4874,-5.4982,-5.5015,-5.5044,-5.5143,-5.5179,-5.4742,-5.4742,-5.4742,0,-5.3753,-5.3911,-5.3875,-5.4,-5.4051,-5.3968,-5.4112,-5.4153,-5.4239,-5.4276,-5.4208,-5.4415,-5.4449,-5.4645,-5.4713,-5.4752,-5.479,-5.4713,-5.5013,-5.5041,-5.5068,-5.5162,-5.5199,-5.4752,-5.4751,-5.475,-5.4749,0,-5.4073,-5.4184,-5.4293,-5.4375,-5.4439,-5.4573,-5.4559,-5.4628,-5.4596,-5.4598,-5.4758,-5.4796,-5.4891,-5.4936,-5.4907,-5.5129,-5.5089,-5.5018,-5.4896,-5.5118,-5.5206,-5.5241,-5.4767,-5.4763,-5.476,-5.4758,0,0,-5.4432,-5.4491,-5.4532,-5.4568,-5.4625,-5.4711,-5.4841,-5.4933,-5.4993,-5.5054,-5.5163,-5.5306,-5.5239,-5.529,-5.5265,-5.536,-5.5578,-5.5277,-5.5278,-5.5331,-5.5824,-5.5877,-5.5919,-5.554,-5.5547,-5.5552,-5.5819,0,-5.4694,-5.4919,-5.4891,-5.5106,-5.5208,-5.513,-5.5244,-5.5292,-5.5298,-5.5386,-5.5393,-5.5494,-5.54,-5.543,-5.5521,-5.5532,-5.5676,-5.5513,-5.5641,-5.5646,-5.5628,-5.5965,-5.6021,-5.6271,-5.5853,-5.5859,-5.5863,0,-5.5031,-5.5103,-5.5329,-5.5369,-5.5411,-5.5513,-5.5594,-5.568,-5.5733,-5.573,-5.5787,-5.5744,-5.5876,-5.5752,-5.5933,-5.5822,-5.5873,-5.5887,-5.5896,-5.5906,-5.5767,-5.5984,-5.635,-5.6387,-5.5917,-5.5912,-5.5908,0,-5.5269,-5.5422,-5.5576,-5.5609,-5.5661,-5.5735,-5.576,-5.5806,-5.5862,-5.5934,-5.5971,-5.6058,-5.6105,-5.6174,-5.6156,-5.6068,-5.6341,-5.6216,-5.6343,-5.6344,-5.6404,-5.64,-5.6783,-5.6439,-5.6438,-5.6437,-5.6437,0,-5.5565,-5.5706,-5.5683,-5.5778,-5.5934,-5.59,-5.6055,-5.6071,-5.6112,-5.6209,-5.6148,-5.6241,-5.6212,-5.6304,-5.6292,-5.6443,-5.6465,-5.6467,-5.6462,-5.6472,-5.6472,-5.6505,-5.6487,-5.6447,-5.6445,-5.6443,-5.6441,0,-5.5856,-5.5847,-5.6009,-5.6045,-5.6057,-5.617,-5.62,-5.629,-5.6291,-5.6414,-5.6442,-5.6444,-5.6548,-5.6538,-5.6656,-5.6647,-5.6834,-5.6809,-5.6816,-5.681,-5.6937,-5.6925,-5.7354,-5.7408,-5.703,-5.7033,-5.7036,0,-5.6045,-5.6151,-5.6197,-5.6257,-5.6287,-5.6385,-5.6442,-5.6413,-5.6476,-5.6544,-5.6625,-5.6724,-5.6801,-5.6972,-5.6985,-5.7075,-5.705,-5.7194,-5.7064,-5.707,-5.7052,-5.7045,-5.7055,-5.722,-5.7224,-5.7228,-5.7231,0,-5.6382,-5.6371,-5.6455,-5.6538,-5.6608,-5.6672,-5.673,-5.6783,-5.676,-5.6833,-5.6939,-5.6999,-5.7118,-5.7217,-5.7302,-5.7328,-5.7277,-5.7272,-5.7306,-5.7317,-5.7316,-5.7318,-5.6885,-5.7262,-5.7259,-5.7257,-5.7255,-5.7254,-5.6627,-5.6717,-5.6763,-5.6859,-5.6899,-5.6955,-5.704,-5.7051,-5.7138,-5.7232,-5.721,-5.7329,-5.7379,-5.7487,-5.7523,-5.7616,-5.7564,-5.7613,-5.7626,-5.7638,-5.7653,-5.7302,-5.7632,-5.7631,-5.763,-5.7629,-5.7628,0,-5.6959,-5.6985,-5.7073,-5.7155,-5.7231,-5.7174,-5.7235,-5.7302,-5.7407,-5.7457,-5.7534,-5.7655,-5.7751,-5.7771,-5.7862,-5.7933,-5.7912,-5.7958,-5.7952,-5.7959,-5.7694,-5.7655,-5.7974,-5.7974,-5.7973,-5.7973,-5.7973,-5.7973,-5.7141,-5.729,-5.7286,-5.7455,-5.7479,-5.7594,-5.7634,-5.7685,-5.7725,-5.7862,-5.794,-5.7952,-5.7991,-5.8084,-5.817,-5.8173,-5.8209,-5.8265,-5.826,-5.8012,-5.7978,-5.7945,-5.7908,-5.8274,-5.8274,-5.8516,-5.8518,-5.852]},{"header":{"parameterUnit":"m.s-1","parameterCategory":1,"la1":30.2991,"la2":30.254,"lo1":-89.0895,"lo2":-89.0444,"dy":0.0017,"dx":0.0017,"nx":28,"ny":28,"refTime":"2025-12-06T09:00:00:Z","depth":0,"parameterNumber":3,"parameterNumberName":"V-component_of_WINDS"},"data":[0,0,0,0,0,0,0,0,0,0,0,0,0,0,0,0,0,0,0,0,0,0,0,0,0,0,0,0,0,0,0,0,0,0,0,0,0,0,0,0,0,0,0,0,0,0,0,0,0,0,0,0,0,0,0,0,0,0,0.0235,0.0236,0,0.0302,0.0303,0.0304,0.0311,0.031,0.031,0.0309,0.0379,0.0381,0.0383,0,0,0,0,0,0,0,0,0,0,0,0,0,0.0114,0.0117,0.0235,0.0236,0.0237,0.0302,0.0303,0.0304,0.0311,0.031,0.0309,0.0309,0.0378,0.0381,0.0384,0,0,0,0,0,0,0,0,0,0,0,0,0,0.0173,0.0117,0.0235,0.0248,0.025,0.0302,0.0303,0.0304,0.0311,0.031,0.0309,0.0308,0.0377,0.038,0.0384,0.0428,0,0,0.0396,0.0397,0,0,0,0,0,0,0,0,0.0169,0.0177,0.0245,0.0247,0.0249,0.0297,0.0286,0.0346,0.0311,0.0288,0.0309,0.0308,0.0352,0.0358,0.0373,0.0431,0.0434,0.0396,0.0398,0.04,0.0401,0,0,0,0,0,0,0,0.0165,0.0174,0.0262,0.0246,0.0249,0.0251,0.0258,0.0298,0.0325,0.029,0.0291,0.0298,0.0353,0.0369,0.0375,0.0435,0.0396,0.0399,0.0401,0.0403,0.0535,0.0536,0,0,0,0,0,0,0.0159,0.0171,0.026,0.0264,0.0206,0.0254,0.0262,0.0283,0.0325,0.033,0.0299,0.0298,0.0363,0.037,0.0377,0.0433,0.04,0.0403,0.0405,0.0534,0.0535,0.0537,0,0,0,0,0,0,0.0156,0.0166,0.0257,0.0218,0.0229,0.0257,0.0281,0.0285,0.0301,0.0332,0.0337,0.031,0.0363,0.0372,0.0416,0.0435,0.0405,0.0408,0.0532,0.0534,0.0536,0.0543,0,0,0,0,0,0,0.0153,0.0165,0.0182,0.0218,0.0231,0.0294,0.0282,0.0287,0.0307,0.0307,0.0344,0.0349,0.0363,0.041,0.0419,0.044,0.0411,0.0531,0.0533,0.0536,0.0541,0.0545,0.0548,0,0,0,0,0,0.0148,0.0181,0.0183,0.0193,0.0252,0.0295,0.0302,0.0318,0.0309,0.0326,0.0346,0.0348,0.0431,0.0415,0.0425,0.0447,0.053,0.0533,0.0535,0.054,0.0544,0.0548,0,0,0,0,0,0,0.0146,0.0186,0.0188,0.0233,0.0261,0.0296,0.0318,0.0322,0.0352,0.0351,0.0369,0.0377,0.0421,0.0438,0.0418,0.0493,0.048,0.0485,0.048,0.0484,0.0488,0.0483,0.0414,0,0,0,0,0,0.0151,0.0182,0.0215,0.0251,0.0265,0.0289,0.0308,0.0318,0.0347,0.0358,0.0382,0.041,0.0444,0.0465,0.0497,0.0544,0.0553,0.0564,0.0568,0.0571,0.0575,0.0603,0.0609,0.0546,0.0546,0.0546,0,0,0.0161,0.0187,0.0205,0.0252,0.0274,0.0306,0.0299,0.0333,0.0357,0.0364,0.0407,0.0425,0.0458,0.0505,0.0526,0.0521,0.0594,0.0574,0.0576,0.0579,0.0607,0.0613,0.0618,0.0548,0.0548,0.0548,0,0,0.0196,0.0218,0.0252,0.0275,0.0309,0.0325,0.0333,0.0368,0.0381,0.0425,0.0431,0.046,0.0516,0.054,0.056,0.0606,0.0609,0.0616,0.0635,0.0662,0.0667,0.0671,0.0689,0.0695,0.062,0.062,0.062,0,0.0205,0.0253,0.0269,0.0303,0.0325,0.0332,0.0368,0.0389,0.0432,0.0447,0.044,0.0512,0.0534,0.0587,0.0599,0.0614,0.0625,0.0612,0.0665,0.0669,0.0674,0.0691,0.0698,0.0621,0.0621,0.0621,0.0621,0,0.0263,0.0296,0.032,0.0361,0.0385,0.042,0.0442,0.0464,0.0472,0.0489,0.0535,0.0562,0.0601,0.0614,0.0622,0.0669,0.0664,0.0661,0.0648,0.068,0.0697,0.0704,0.0622,0.0622,0.0622,0.0621,0,0,0.0298,0.0349,0.0357,0.0377,0.0416,0.0443,0.0479,0.0516,0.0536,0.0566,0.0597,0.0645,0.0643,0.0665,0.0676,0.0699,0.0736,0.0693,0.0694,0.0701,0.0792,0.0795,0.0802,0.0739,0.074,0.0741,0.0789,0,0.0338,0.0402,0.0418,0.0472,0.0504,0.0513,0.0545,0.0572,0.059,0.062,0.064,0.0674,0.0667,0.0681,0.0705,0.0727,0.0755,0.0723,0.0769,0.077,0.0761,0.081,0.0813,0.0857,0.0796,0.0797,0.0798,0,0.0394,0.0425,0.0483,0.052,0.0534,0.0562,0.0599,0.0627,0.066,0.0671,0.0697,0.0706,0.0744,0.073,0.0784,0.0762,0.0782,0.0796,0.0798,0.0803,0.0786,0.0818,0.0872,0.0879,0.0808,0.0807,0.0806,0,0.0415,0.0472,0.0514,0.0531,0.0574,0.0594,0.0613,0.0645,0.0667,0.07,0.0715,0.0751,0.0771,0.08,0.0819,0.0806,0.0872,0.0859,0.0884,0.0883,0.0897,0.0896,0.0956,0.0909,0.0908,0.0908,0.0908,0,0.0459,0.0494,0.0525,0.0551,0.0591,0.061,0.065,0.0669,0.0698,0.0728,0.0738,0.0767,0.079,0.0822,0.0837,0.0881,0.089,0.0901,0.0904,0.09,0.0899,0.0914,0.0911,0.091,0.091,0.0909,0.0909,0,0.0489,0.0511,0.0558,0.0596,0.0607,0.0635,0.0668,0.0694,0.0712,0.0751,0.0761,0.079,0.0829,0.0851,0.0899,0.091,0.0959,0.096,0.0948,0.0949,0.0973,0.0971,0.1045,0.1056,0.1001,0.1001,0.1002,0,0.0516,0.0544,0.0585,0.0607,0.0626,0.066,0.0684,0.0704,0.0728,0.0768,0.079,0.0829,0.0862,0.0924,0.0949,0.0987,0.099,0.1013,0.0996,0.0991,0.0992,0.099,0.0994,0.1017,0.1017,0.1017,0.1018,0,0.0562,0.0572,0.0605,0.0643,0.067,0.0701,0.0731,0.0748,0.0773,0.08,0.084,0.0865,0.0916,0.0955,0.0995,0.1016,0.1022,0.1023,0.1031,0.1028,0.102,0.1026,0.0957,0.1021,0.1021,0.1021,0.1021,0.1021,0.0593,0.0619,0.0652,0.0689,0.0714,0.0743,0.077,0.0792,0.0825,0.0868,0.0878,0.092,0.0954,0.1009,0.103,0.1064,0.106,0.1071,0.1074,0.1077,0.1078,0.1014,0.1071,0.1071,0.1071,0.1071,0.1071,0,0.0641,0.0663,0.0697,0.0739,0.0769,0.0772,0.0806,0.0831,0.0868,0.0899,0.0931,0.0978,0.1017,0.1046,0.1086,0.1108,0.1111,0.1118,0.1116,0.1121,0.1079,0.1069,0.1114,0.1114,0.1114,0.1114,0.1114,0.1114,0.0669,0.0713,0.0727,0.0784,0.0807,0.0848,0.0868,0.0895,0.092,0.0971,0.1004,0.1023,0.1053,0.1096,0.1132,0.114,0.1155,0.1161,0.1169,0.1129,0.1124,0.112,0.111,0.1163,0.1163,0.1208,0.1209,0.1209]}]]